Location: Asheville, NC
(35.6000°N, 82.5500°W)
Time: 04:39:27
(UTC-05:00)

CUBEBUG 2 - Pass Details

Date: 10 January 2018
Orbit: 587 x 699 km, 97.6° (Epoch: 17 January)

Event Time Altitude Azimuth Distance (km) Brightness Sun altitude
Rises 18:06:46 0° 132° (SE) 2,820 ? -6.6°
Reaches altitude 10° 18:09:22 10° 115° (ESE) 1,936 ? -7.1°
Maximum altitude 18:12:23 20° 69° (ENE) 1,432 ? -7.6°
Drops below altitude 10° 18:15:29 10° 22° (NNE) 1,985 ? -8.2°
Sets 18:18:11 0° 6° (N) 2,917 ? -8.7°
